Flag for Germany Weather past 2 weeks in Aurich, Lower Saxony, Germany

Now
48 °F

Fog.


Feels Like: 43 °F
Forecast: 48 / 67 °F
Wind: 13 mph from Northeast

Location: Wittmundhaven


UV Index: 0 (Low)

Visibility: 0 mi


Pressure: 30.04 "Hg

Humidity: 94%

Dew point: 46 °F

Location of AurichLocation

Historic Weather in Aurich

°F

Aurich temperature yesterday

Maximum temperature yesterday: 57 °F (at 6:20 PM)
Minimum temperature yesterday: 50 °F (at 8:20 AM)
Average temperature yesterday: 53 °F

Past Weeks' High & Low Weather Summary

 TemperatureHumidityPressure
High68 °F (Apr 20, 3:20 PM)100% (Apr 11, 11:20 PM)30.48 "Hg (Apr 11, 11:20 PM)
Low30 °F (Apr 16, 4:20 AM)33% (Apr 16, 3:20 PM)29.71 "Hg (Apr 21, 5:20 PM)
Average50 °F77%30.04 "Hg
* Reported Apr 10 7:20 AM — Apr 25 7:20 AM, Aurich, Weather by CustomWeather, © 2014

Note: Actual official high and low records may vary slightly from our data, if they occured in-between our weather recording intervals... More about our weather records

Advertising

Historic Weather Conditions — Data for Previous 24 hours

 ConditionsComfort  
Time TempWeatherWind HumidityBarometerVisibility
7:20 AM
Apr 25
46 °FFog.10 mph93%30.04 "Hg1 mi
6:54 AM46 °FFog.7 mph93%30.04 "Hg2 mi
6:20 AM45 °FFog.7 mph100%30.04 "Hg1 mi
5:20 AM46 °FFog.8 mph93%30.04 "Hg2 mi
4:20 AM46 °FFog.7 mph93%30.04 "Hg2 mi
3:20 AM48 °FFog.8 mph94%30.04 "Hg2 mi
2:20 AM48 °FFog.6 mph94%30.07 "Hg2 mi
1:20 AM50 °FFog.10 mph94%30.07 "Hg2 mi
12:20 AM50 °FFog.10 mph94%30.09 "Hg2 mi
11:20 PM
Apr 24
50 °FFog.8 mph94%30.09 "Hg3 mi
10:20 PM52 °FPassing clouds.12 mph88%30.09 "Hg4 mi
9:20 PM52 °FPartly sunny.9 mph94%30.09 "Hg6 mi
8:20 PM54 °FPartly sunny.14 mph88%30.09 "HgN/A
7:20 PM55 °FScattered clouds.13 mph88%30.09 "Hg6 mi
6:20 PM57 °FPartly sunny.13 mph82%30.09 "Hg5 mi
5:20 PM55 °FPartly sunny.10 mph88%30.12 "Hg4 mi
4:20 PM55 °FPartly sunny.10 mph88%30.12 "Hg6 mi
3:20 PM55 °FPartly sunny.9 mph88%30.12 "Hg5 mi
3:03 PM55 °FPartly sunny.8 mph88%30.15 "Hg4 mi
2:20 PM55 °FPartly sunny.9 mph88%30.15 "Hg4 mi
1:20 PM54 °FPartly sunny.10 mph94%30.15 "Hg4 mi
12:20 PM54 °FFog.9 mph94%30.15 "Hg2 mi
11:20 AM54 °FFog.9 mph94%30.15 "Hg2 mi
10:58 AM54 °FFog.9 mph94%30.18 "Hg2 mi
10:20 AM52 °FFog.8 mph94%30.18 "Hg1 mi
9:20 AM50 °FFog.12 mph100%30.15 "Hg1 mi
Weather by CustomWeather, © 2014

See weather overview